Flag for U.S.A. Weather past 2 weeks in Tallahassee, Florida, U.S.A.

Now
60 °F

Light rain. Mostly cloudy.


Feels Like: 60 °F
Forecast: 41 / 63 °F
Wind: 8 mph from Southeast

Location: Tallahassee Regional Airport

Current Time: Feb 1, 2015 at 8:12:10 PM

Latest Report: Feb 1, 2015 at 6:53 PM


Visibility: 9 mi

Pressure: 30.01 "Hg

Humidity: 83%

Dew point: 55 °F

Location of TallahasseeLocation

Historic Weather in Tallahassee — Graph

°F

Tallahassee temperature yesterday

Maximum temperature yesterday: 65 °F (at 2:53 PM)
Minimum temperature yesterday: 30 °F (at 6:53 AM)
Average temperature yesterday: 46 °F

Past Weeks' High & Low Weather Summary

 TemperatureHumidityPressure
High73 °F (Jan 21, 1:53 PM)97% (Jan 23, 9:53 AM)30.37 "Hg (Jan 23, 9:53 AM)
Low29 °F (Jan 19, 7:53 AM)14% (Jan 19, 2:53 PM)29.75 "Hg (Jan 24, 1:53 AM)
Average52 °F63%30.10 "Hg
* Reported Jan 17 6:53 PM — Feb 1 6:53 PM, Tallahassee, Weather by CustomWeather, © 2014

Note: Actual official high and low records may vary slightly from our data, if they occured in-between our weather recording intervals... More about our weather records

Advertising

Tallahassee weather history for previous 24 hours

 ConditionsComfort  
Time TempWeatherWind HumidityBarometerVisibility
6:53 PM
Feb 1
60 °FLight rain. Mostly cloudy.8 mph83%30.01 "Hg9 mi
5:53 PM62 °FLight rain. Overcast.9 mph67%30.03 "Hg10 mi
4:53 PM66 °FOvercast.14 mph56%30.04 "Hg10 mi
3:53 PM67 °FPartly sunny.14 mph55%30.04 "Hg10 mi
2:53 PM69 °FPartly sunny.21 mph51%30.05 "Hg10 mi
1:53 PM69 °FBroken clouds.21 mph49%30.08 "Hg10 mi
12:53 PM68 °FBroken clouds.14 mph49%30.13 "Hg10 mi
11:53 AM69 °FScattered clouds.16 mph47%30.14 "Hg10 mi
10:53 AM64 °FScattered clouds.13 mph56%30.17 "Hg10 mi
9:53 AM58 °FPartly sunny.13 mph62%30.18 "Hg10 mi
8:53 AM49 °FPartly sunny.9 mph74%30.20 "Hg10 mi
7:53 AM41 °FPartly sunny.3 mph82%30.22 "Hg10 mi
6:53 AM45 °FPassing clouds.7 mph80%30.20 "Hg10 mi
5:53 AM45 °FPassing clouds.7 mph80%30.20 "Hg10 mi
4:53 AM42 °FClear.No wind79%30.22 "Hg10 mi
3:53 AM46 °FClear.No wind73%30.22 "Hg10 mi
2:53 AM48 °FClear.7 mph71%30.22 "Hg10 mi
1:53 AM47 °FClear.9 mph71%30.22 "Hg10 mi
12:53 AM46 °FClear.5 mph71%30.24 "Hg10 mi
11:53 PM
Jan 31
48 °FClear.8 mph63%30.26 "Hg10 mi
10:53 PM40 °FPartly cloudy.No wind70%30.25 "Hg10 mi
9:53 PM41 °FPassing clouds.No wind70%30.27 "Hg10 mi
8:53 PM43 °FPassing clouds.No wind65%30.27 "Hg10 mi
Weather by CustomWeather, © 2014

See weather overviewHow to use our weather pages